EW9945 Weather Reports


time (UTC)temp
F
wind
direction
speed
knots
gust
knots
rain 1hr
in
rain 24hr
in
rain mn
in
humidity
%
barometer
mb
20260905061539 63 279 0.0 0.0 0.00 0.00 0.00 87 1012.3
20260905060034 64 279 0.0 0.0 0.00 0.00 0.00 86 1012.3
20260905054535 65 279 0.0 0.0 0.00 0.00 0.00 85 1012.4
20260905053032 65 279 0.0 0.0 0.00 0.00 0.00 84 1012.4
20260905051536 65 279 0.0 0.0 0.00 0.00 0.00 84 1012.5
20260905050031 65 279 0.0 0.0 0.00 0.00 0.00 85 1012.6
20260905044534 66 279 0.0 0.0 0.00 0.00 0.00 84 1012.6
20260905043030 66 279 0.0 0.0 0.00 0.00 0.00 83 1012.6
20260905041530 66 279 0.0 0.0 0.00 0.00 0.00 84 1012.6
20260905040032 66 279 0.0 0.0 0.00 0.00 0.00 83 1012.6
20260905034531 66 279 0.0 0.0 0.00 0.00 0.00 83 1012.4
20260905033028 66 279 0.0 0.0 0.00 0.00 0.00 82 1012.4
20260905031535 67 279 0.0 0.0 0.00 0.00 0.00 82 1012.3
20260905030034 67 279 0.0 0.0 0.00 0.00 0.00 81 1012.3
20260905024527 67 279 0.0 0.0 0.00 0.00 0.00 82 1012.3
20260905023032 67 279 0.0 0.0 0.00 0.00 0.00 82 1012.3
20260905021529 67 279 0.0 2.6 0.00 0.00 0.00 80 1012.5
20260905020028 68 284 0.9 6.1 0.00 0.00 0.00 80 1012.5
20260905014527 69 360 6.1 11.3 0.00 0.00 0.00 77 1012.6
20260905013026 69 304 3.5 7.0 0.00 0.00 0.00 78 1012.5
20260905011526 69 340 1.7 5.2 0.00 0.00 0.00 79 1012.4
20260905010026 70 340 0.9 4.3 0.00 0.00 0.00 80 1012.4
20260905004526 70 340 0.0 0.0 0.00 0.00 0.00 81 1012.4
20260905003025 71 340 0.0 0.0 0.00 0.00 0.00 80 1012.2
20260905001524 71 340 0.0 0.0 0.00 0.00 0.00 79 1012.1
20260905000023 71 340 0.0 0.0 0.00 0.00 0.00 77 1011.9
20260904234536 72 340 0.0 0.0 0.00 0.00 0.00 77 1011.7
20260904233025 72 340 0.0 0.0 0.00 0.00 0.00 76 1011.5
20260904231524 73 340 0.0 0.0 0.00 0.00 0.00 75 1011.6
20260904230030 74 340 0.0 0.0 0.00 0.00 0.00 73 1011.6
20260904224537 74 340 0.0 0.0 0.00 0.00 0.00 73 1011.4
20260904223023 74 340 0.0 0.0 0.00 0.00 0.00 71 1011.5
20260904221522 75 340 0.0 0.0 0.00 0.00 0.00 71 1011.3
20260904220023 76 340 0.0 0.0 0.00 0.00 0.00 71 1011.3
20260904214537 75 340 0.0 4.3 0.00 0.00 0.00 68 1011.2
20260904213021 76 339 0.0 6.1 0.00 0.00 0.00 66 1011.0
20260904211521 76 325 1.7 6.1 0.00 0.00 0.00 66 1011.0
20260904210020 76 311 0.0 0.0 0.00 0.00 0.00 69 1011.2
20260904204518 76 311 0.9 4.3 0.00 0.00 0.00 68 1011.5
20260904203017 76 311 0.0 0.0 0.00 0.00 0.00 68 1011.5
20260904201515 77 311 0.0 5.2 0.00 0.00 0.00 66 1011.7
20260904200024 76 301 0.0 2.6 0.00 0.00 0.00 72 1011.8
20260904194512 76 290 0.0 2.6 0.00 0.00 0.00 71 1011.9
20260904193011 76 289 0.0 0.0 0.00 0.00 0.00 73 1011.9
20260904191513 76 289 0.0 0.0 0.00 0.00 0.00 74 1012.3
20260904190006 75 289 0.0 0.9 0.00 0.00 0.00 75 1012.3
20260904184517 75 289 0.0 3.5 0.00 0.00 0.00 74 1012.3
20260904183005 75 303 0.9 5.2 0.00 0.00 0.00 74 1012.5
20260904181504 74 309 0.9 6.1 0.00 0.00 0.00 75 1012.8
20260904180004 73 295 0.9 6.1 0.00 0.00 0.00 76 1013.0
20260904174504 73 298 0.0 5.2 0.00 0.00 0.00 75 1013.1
20260904173004 73 311 0.9 4.3 0.00 0.00 0.00 75 1013.3
20260904171503 74 297 1.7 8.7 0.00 0.00 0.00 74 1013.2
20260904170002 73 303 3.5 7.8 0.00 0.00 0.00 73 1013.2
20260904164502 72 319 4.3 8.7 0.00 0.00 0.00 77 1013.3
20260904163002 73 302 5.2 9.6 0.00 0.00 0.00 76 1013.3
20260904161502 74 329 2.6 7.0 0.00 0.00 0.00 76 1013.4
20260904160002 75 301 0.9 6.1 0.00 0.00 0.00 73 1013.3
20260904154600 75 300 3.5 7.0 0.00 0.00 0.00 74 1013.3
20260904153105 75 319 2.6 7.0 0.00 0.00 0.00 75 1013.5
20260904151603 74 300 0.0 6.1 0.00 0.00 0.00 77 1013.3
20260904150058 73 344 0.0 5.2 0.00 0.00 0.00 78 1013.2
20260904144555 72 336 0.0 4.3 0.00 0.00 0.00 80 1013.0
20260904143055 72 336 0.0 0.9 0.00 0.00 0.00 81 1013.2
20260904141610 72 336 0.0 4.3 0.00 0.00 0.00 80 1013.3
20260904140051 72 337 0.9 4.3 0.00 0.00 0.00 80 1013.5
20260904134550 72 338 0.0 7.8 0.00 0.00 0.00 80 1013.5
20260904133047 72 348 0.0 7.8 0.00 0.00 0.00 82 1013.2
20260904131604 71 307 2.6 5.2 0.00 0.00 0.00 83 1013.2
20260904130045 71 300 2.6 4.3 0.00 0.00 0.00 83 1013.1
20260904124544 71 319 0.0 4.3 0.00 0.00 0.00 86 1013.3
20260904123053 69 319 0.9 4.3 0.00 0.00 0.00 90 1013.4
20260904121536 68 319 0.0 2.6 0.00 0.00 0.00 92 1013.4
20260904120035 68 319 0.0 0.0 0.00 0.00 0.00 93 1013.3
20260904114542 66 319 0.0 0.0 0.00 0.00 0.00 93 1013.4
20260904113033 65 319 0.0 0.0 0.00 0.00 0.00 92 1013.3
20260904111534 65 319 0.0 0.0 0.00 0.00 0.00 92 1013.3
20260904110035 65 319 0.0 0.0 0.00 0.01 0.00 92 1013.3
20260904104528 65 319 0.0 0.0 0.00 0.01 0.00 92 1013.0
20260904103025 65 319 0.0 0.0 0.00 0.01 0.00 91 1013.0
20260904101525 66 319 0.0 0.0 0.00 0.01 0.00 92 1013.0
20260904100023 66 319 0.0 0.0 0.00 0.01 0.00 91 1012.8
20260904094522 66 319 0.0 0.0 0.00 0.01 0.00 92 1012.8
20260904093021 66 319 0.0 0.0 0.00 0.01 0.00 92 1012.9
20260904091521 66 319 0.0 0.0 0.00 0.01 0.00 92 1012.8
20260904090023 66 319 0.0 0.0 0.00 0.03 0.01 92 1012.8
20260904084519 67 319 0.0 0.0 0.00 0.03 0.01 92 1012.7
20260904083020 66 319 0.0 0.0 0.00 0.03 0.01 92 1012.6
20260904081519 66 319 0.0 0.0 0.00 0.03 0.01 92 1012.4
20260904080020 66 319 0.0 1.7 0.00 0.05 0.01 92 1012.4
20260904074522 65 319 0.0 0.0 0.00 0.05 0.01 92 1012.4
20260904073022 65 319 0.0 0.0 0.00 0.05 0.01 92 1012.5
20260904071530 65 319 0.0 0.0 0.00 0.05 0.01 92 1012.4
20260904070019 66 319 0.0 0.0 0.00 0.11 0.01 92 1012.1
20260904064516 66 319 0.0 0.0 0.00 0.11 0.01 92 1011.8
20260904063022 67 319 0.0 0.0 0.00 0.11 0.01 92 1011.5